Flag for U.S.A. Weather past 2 weeks in Birmingham, Alabama, U.S.A.

Now
64 °F

Clear.


Feels Like: 64 °F
Forecast: 61 / 75 °F
Wind: 13 mph from South

Location: Birmingham International Airport

Current Time: Mar 3, 2015 at 10:42:50 PM

Latest Report: Mar 3, 2015 at 9:53 PM


Visibility: 10 mi

Pressure: 30.02 "Hg

Humidity: 87%

Dew point: 60 °F

Location of BirminghamLocation

Historic Weather in Birmingham — Graph

°F

Birmingham temperature yesterday

Maximum temperature yesterday: 53 °F (at 12:53 AM)
Minimum temperature yesterday: 50 °F (at 11:53 AM)
Average temperature yesterday: 51 °F

Past Weeks' High & Low Weather Summary

 TemperatureHumidityPressure
High65 °F (Mar 3, 2:00 PM)100% (Feb 21, 10:03 PM)30.56 "Hg (Feb 21, 10:03 PM)
Low14 °F (Feb 19, 6:53 AM)21% (Feb 19, 4:53 PM)29.76 "Hg (Feb 25, 5:53 PM)
Average39 °F71%30.22 "Hg
* Reported Feb 16 8:53 PM — Mar 3 8:53 PM, Birmingham, Weather by CustomWeather, © 2015

Note: Actual official high and low records may vary slightly from our data, if they occured in-between our weather recording intervals... More about our weather records

Advertising

Birmingham weather history for previous 24 hours

 ConditionsComfort  
Time TempWeatherWind HumidityBarometerVisibility
8:53 PM
Tue, Mar 3
65 °FPassing clouds.9 mph85%30.03 "Hg10 mi
7:53 PM64 °FClear.8 mph90%30.03 "Hg10 mi
6:53 PM64 °FFog.7 mph97%30.03 "Hg5 mi
5:53 PM63 °FLight rain. Fog.No wind97%30.04 "Hg4 mi
4:56 PM63 °FFog.5 mph97%30.05 "Hg4 mi
3:59 PM64 °FRain. Fog.7 mph97%30.06 "Hg1 mi
2:53 PM65 °FFog.3 mph94%30.06 "Hg2 mi
2:00 PM65 °FFog.9 mph91%30.09 "Hg3 mi
12:53 PM62 °FFog.3 mph93%30.10 "Hg2 mi
11:53 AM59 °FFog.No wind93%30.14 "Hg3 mi
11:00 AM58 °FRain. Fog.3 mph97%30.17 "Hg1 mi
9:59 AM57 °FFog.No wind96%30.18 "Hg2 mi
9:02 AM57 °FFog.No wind96%30.20 "Hg3 mi
8:53 AM57 °FFog.3 mph96%30.19 "Hg1 mi
7:53 AM56 °FFog.No wind93%30.19 "Hg1 mi
6:53 AM55 °FFog.5 mph96%30.18 "Hg1 mi
5:53 AM54 °FFog.No wind93%30.18 "Hg2 mi
4:53 AM53 °FFog.No wind96%30.17 "Hg2 mi
3:56 AM52 °FFog.No wind97%30.18 "Hg2 mi
2:53 AM52 °FFog.No wind97%30.18 "Hg3 mi
1:53 AM52 °FFog.3 mph93%30.19 "Hg6 mi
1:02 AM52 °FLight rain. Fog.No wind93%30.21 "Hg2 mi
12:53 AM52 °FFog.No wind93%30.21 "Hg4 mi
11:53 PM
Mon, Mar 2
52 °FLow clouds.No wind89%30.23 "Hg10 mi
10:53 PM51 °FOvercast.3 mph89%30.24 "Hg10 mi
10:02 PM51 °FFog.No wind92%30.26 "Hg6 mi
Weather by CustomWeather, © 2015

See weather overviewHow to use our weather pages